TimeCST,TemperatureF,Dew PointF,Humidity,Sea Level PressureIn,VisibilityMPH,Wind Direction,Wind SpeedMPH,Gust SpeedMPH,PrecipitationIn,Events,Conditions,WindDirDegrees,DateUTC
12:48 AM,57.2,57.2,100,29.98,5.0,Calm,Calm,-,N/A,,Overcast,0,2012-12-09 06:48:00
1:56 AM,59.9,59.9,100,29.95,9.0,Calm,Calm,-,0.02,,Scattered Clouds,0,2012-12-09 07:56:00
2:56 AM,61.0,59.9,96,29.95,9.0,Calm,Calm,-,N/A,,Mostly Cloudy,0,2012-12-09 08:56:00
3:31 AM,60.8,60.8,100,29.95,2.5,SE,5.8,-,0.04,Rain,Heavy Rain,130,2012-12-09 09:31:00
3:45 AM,60.8,60.8,100,29.96,6.0,South,5.8,-,0.04,Rain,Light Rain,170,2012-12-09 09:45:00
3:56 AM,61.0,59.9,96,29.94,7.0,South,4.6,-,0.04,,Mostly Cloudy,180,2012-12-09 09:56:00
4:40 AM,60.8,60.8,100,29.96,6.0,Calm,Calm,-,N/A,,Mostly Cloudy,0,2012-12-09 10:40:00
4:56 AM,61.0,59.9,96,29.93,5.0,Calm,Calm,-,N/A,,Mostly Cloudy,0,2012-12-09 10:56:00
5:32 AM,60.8,60.8,100,29.95,6.0,South,5.8,-,N/A,,Mostly Cloudy,170,2012-12-09 11:32:00
5:56 AM,61.0,59.9,96,29.94,6.0,South,4.6,-,N/A,,Overcast,170,2012-12-09 11:56:00
6:14 AM,62.6,60.8,94,29.95,7.0,South,3.5,-,N/A,,Overcast,170,2012-12-09 12:14:00
6:56 AM,61.0,59.9,96,29.93,8.0,South,6.9,-,N/A,,Mostly Cloudy,190,2012-12-09 12:56:00
7:11 AM,62.6,60.8,94,29.96,7.0,SSW,6.9,-,N/A,,Mostly Cloudy,200,2012-12-09 13:11:00
7:19 AM,62.6,60.8,94,29.95,8.0,South,8.1,-,N/A,,Mostly Cloudy,190,2012-12-09 13:19:00
7:26 AM,62.6,60.8,94,29.95,7.0,South,10.4,-,N/A,,Mostly Cloudy,190,2012-12-09 13:26:00
7:56 AM,63.0,61.0,93,29.95,9.0,SSW,8.1,-,N/A,,Mostly Cloudy,200,2012-12-09 13:56:00
8:05 AM,62.6,60.8,94,29.96,9.0,SSW,8.1,-,N/A,,Overcast,200,2012-12-09 14:05:00
8:23 AM,64.4,60.8,88,29.96,10.0,SSW,9.2,-,N/A,,Overcast,200,2012-12-09 14:23:00
8:46 AM,64.4,62.6,94,29.97,7.0,SSW,5.8,-,0.01,Rain,Light Rain,200,2012-12-09 14:46:00
8:56 AM,63.9,61.9,93,29.96,10.0,SSW,9.2,18.4,0.01,,Mostly Cloudy,200,2012-12-09 14:56:00
9:13 AM,64.4,62.6,94,29.98,10.0,SSW,9.2,-,N/A,,Mostly Cloudy,200,2012-12-09 15:13:00
9:31 AM,64.4,62.6,94,29.98,10.0,SSW,8.1,-,N/A,,Scattered Clouds,200,2012-12-09 15:31:00
9:56 AM,64.9,61.9,90,29.96,5.0,SSW,11.5,16.1,0.00,Rain,Light Rain,200,2012-12-09 15:56:00
10:11 AM,64.4,62.6,94,29.97,9.0,SSW,10.4,-,0.00,Rain,Light Rain,200,2012-12-09 16:11:00
10:56 AM,65.8,61.9,87,29.95,10.0,SSW,12.7,17.3,0.00,,Overcast,210,2012-12-09 16:56:00
11:56 AM,65.8,61.9,87,29.92,10.0,SSW,8.1,-,0.02,,Mostly Cloudy,200,2012-12-09 17:56:00
12:21 PM,68.0,62.6,83,29.93,10.0,SSW,10.4,-,N/A,,Scattered Clouds,210,2012-12-09 18:21:00
12:56 PM,68.0,61.9,81,29.89,10.0,SSW,10.4,18.4,N/A,,Mostly Cloudy,210,2012-12-09 18:56:00
1:12 PM,69.8,62.6,78,29.91,10.0,SSW,6.9,-,N/A,,Partly Cloudy,210,2012-12-09 19:12:00
1:56 PM,70.0,61.9,75,29.88,10.0,SSW,11.5,-,N/A,,Partly Cloudy,200,2012-12-09 19:56:00
2:56 PM,68.9,61.0,76,29.87,10.0,SSW,9.2,-,N/A,,Partly Cloudy,200,2012-12-09 20:56:00
3:56 PM,68.9,59.9,73,29.86,10.0,South,10.4,-,N/A,,Clear,190,2012-12-09 21:56:00
4:56 PM,68.0,59.0,73,29.85,10.0,SSW,11.5,19.6,N/A,,Clear,200,2012-12-09 22:56:00
5:56 PM,66.9,57.9,73,29.84,10.0,SSW,12.7,18.4,N/A,,Clear,200,2012-12-09 23:56:00
6:56 PM,65.8,55.9,70,29.84,10.0,SSW,16.1,20.7,N/A,,Clear,200,2012-12-10 00:56:00
7:56 PM,64.9,55.9,73,29.84,10.0,SSW,13.8,-,N/A,,Clear,200,2012-12-10 01:56:00
8:56 PM,63.9,55.9,75,29.83,10.0,SSW,12.7,17.3,N/A,,Partly Cloudy,200,2012-12-10 02:56:00
9:56 PM,63.9,56.8,78,29.80,10.0,SSW,10.4,-,N/A,,Clear,200,2012-12-10 03:56:00
10:56 PM,63.9,56.8,78,29.78,10.0,South,9.2,-,N/A,,Partly Cloudy,190,2012-12-10 04:56:00
11:56 PM,63.9,59.0,84,29.76,6.0,SSW,15.0,20.7,0.00,Rain,Rain,210,2012-12-10 05:56:00